Regional Weather Roundup
Issued by NWS Sioux Falls, SD

Home | Current Version | Previous Version | Text Only | Print | Product List | Glossary On
Versions: 1 2 3 4 5 6 7 8 9 10 11 12 13 14 15 16 17 18 19 20 21 22 23 24 25 26 27 28 29 30 31 32 33 34 35 36 37 38 39 40 41 42 43 44 45 46 47 48 49 50
000
ASUS43 KFSD 291010
RWRFSD

WEATHER ROUNDUP FOR SE SOUTH DAKOTA/SW MINNESOTA/NW IOWA
NATIONAL WEATHER SERVICE SIOUX FALLS SD
500 AM CDT WED JUL 29 2015

NOTE: "FAIR" INDICATES FEW OR NO CLOUDS BELOW 12,000 FEET WITH NO
SIGNIFICANT WEATHER AND OR OBSTRUCTIONS TO VISIBILITY.


SDZ038>040-050-052>070-291100-
SOUTHEAST SOUTH DAKOTA

CITY           SKY/WX    TMP DP  RH WIND       PRES   REMARKS
BROOKINGS      CLEAR     57  48  72 SW9       30.06R
CHAMBERLAIN    CLEAR     58  49  72 W12       30.12R
HURON          CLEAR     62  48  60 W14G22    30.03R
MADISON        FAIR      57  52  82 SW10      30.07R
MITCHELL       CLEAR     61  51  70 SW12      30.08R
SIOUX FALLS    CLEAR     61  52  72 W5        30.08R
WINNER         FAIR      61  45  55 SW9       30.15R
YANKTON        CLEAR     61  54  77 SW7       30.10S
$$

MNZ071-072-080-081-089-090-097-098-291100-
SOUTHWEST MINNESOTA

CITY           SKY/WX    TMP DP  RH WIND       PRES   REMARKS
FAIRMONT       CLEAR     61  52  72 W8        30.03S
JACKSON        CLEAR     61  54  77 SW7       30.06S
LUVERNE        CLEAR     57  52  82 W7        30.09R
MARSHALL       CLEAR     61  48  63 W15       30.01S
MONTEVIDEO     CLEAR     63  52  67 W9G16     29.98R
PIPESTONE      CLEAR     57  52  82 W6        30.07R
REDWOOD FALLS  CLEAR     66  50  56 W18G26    29.97S
TRACY          CLEAR     63  52  67 W12G17    30.03R
WINDOM         CLEAR     61  52  72 SW9       30.04R
WORTHINGTON    CLEAR     57  50  77 SW8       30.07R
$$

IAZ001>003-012>014-020>022-031-032-NEZ013-014-SDZ071-291100-
NORTHWEST IOWA

CITY           SKY/WX    TMP DP  RH WIND       PRES   REMARKS
CHEROKEE         N/A     55  55 100 CALM      30.10R FOG
DENISON        PTCLDY    59  59 100 SE3       30.09R
ESTHERVILLE    CLEAR     55  53  93 W8        30.06R
LE MARS        CLEAR     55  55 100 CALM      30.10S
ORANGE CITY    CLEAR     57  55  94 CALM      30.09S
SHELDON        CLEAR     55  54  94 SW6       30.07S
SIOUX CITY     CLEAR     59  55  87 NW6       30.11R
SPENCER          N/A     55  52  89 W6        30.07S
STORM LAKE     PTCLDY    59  57  94 W6        30.10R
$$

ABBREVIATIONS USED IN REMARKS
   TC - TEMPERATURE IN CELSIUS
  WCI - WIND CHILL INDEX
   HX - HEAT INDEX
  VSB - VISIBILITY




USA.gov is the U.S. government's official web portal to all federal, state and local government web resources and services.